sat.trackr.live / text

‹ back to catalog

KUIPER-00038

NORAD 63750 · 2025-088AC

PAYLOAD ACTIVE UNKNOWN

§ Identity

Operator
Country
US
Launch date
2025-04-28
Launch site
AFETR
Launch vehicle
Mass (kg)
RCS (m²)

External: N2YO · Heavens-Above · Gunter

§ Orbital elements

Epoch: 2026-09-21T10:14:28.614048Z

Period
97.30 min
Inclination
51.9033°
Eccentricity
0.0000452
Mean motion
14.79932738 rev/d
Perigee alt
629.2 km
Apogee alt
629.9 km
Semi-major
7,007.7 km
B*
1.3403e-4
RAAN
312.5744°
Arg perigee
83.3202°
Mean anomaly
276.7812°
Rev number
7,650

§ Raw data

KUIPER-000381 63750U 25088AC  26264.42672007  .00000801  00000+0  13403-3 0  99942 63750  51.9033 312.5744 0000452  83.3202 276.7812 14.79932738 76503

JSON: /api/v1/satellites/63750 · /tle

For live sub-satellite position, see the globe view (requires WebGL).

§ Visibility from observer

Set your observer location to see the next 7 days of passes ≥ 10°. The values pass through the URL so the page stays shareable.

No JS? Fill the form by hand. The geolocation button needs JavaScript.